Time,TemperatureF,DewpointF,PressureIn,WindDirection,WindDirectionDegrees,WindSpeedMPH,WindSpeedGustMPH,Humidity,HourlyPrecipIn,Conditions,Clouds,dailyrainin,SolarRadiationWatts/m^2,SoftwareType,DateUTC
2013-09-10 00:23:00,74.0,71.0,-100.00,ENE,67,0.0,3.0,91,0.00,,,0.00,0.000000,,2013-09-10 05:23:00,
2013-09-10 00:34:00,74.0,71.0,-100.00,ENE,67,0.0,3.0,91,0.00,,,0.00,0.000000,,2013-09-10 05:34:00,
2013-09-10 00:43:00,74.0,71.0,-100.00,ENE,67,0.0,3.0,91,0.00,,,0.00,0.000000,,2013-09-10 05:43:00,
2013-09-10 00:50:00,73.0,70.0,-100.00,NE,55,0.0,2.0,90,0.00,,,0.00,0.000000,,2013-09-10 05:50:00,
2013-09-10 01:22:00,73.0,70.0,-100.00,NE,55,0.0,2.0,90,0.00,,,0.00,0.000000,,2013-09-10 06:22:00,
2013-09-10 01:32:00,73.0,70.0,-100.00,NE,55,0.0,2.0,90,0.00,,,0.00,0.000000,,2013-09-10 06:32:00,
2013-09-10 01:43:00,73.0,70.0,-100.00,NE,55,0.0,2.0,90,0.00,,,0.00,0.000000,,2013-09-10 06:43:00,
2013-09-10 01:50:00,73.0,70.0,-100.00,North,5,1.0,3.0,90,0.00,,,0.00,0.000000,,2013-09-10 06:50:00,
2013-09-10 02:22:00,73.0,70.0,-100.00,North,5,1.0,3.0,90,0.00,,,0.00,0.000000,,2013-09-10 07:22:00,
2013-09-10 02:32:00,73.0,70.0,-100.00,North,5,1.0,3.0,90,0.00,,,0.00,0.000000,,2013-09-10 07:32:00,
2013-09-10 02:42:00,73.0,70.0,-100.00,North,5,1.0,3.0,90,0.00,,,0.00,0.000000,,2013-09-10 07:42:00,
2013-09-10 02:50:00,73.0,70.0,-100.00,NNE,18,1.0,3.0,89,0.00,,,0.00,0.000000,,2013-09-10 07:50:00,
2013-09-10 03:22:00,73.0,70.0,-100.00,NNE,18,1.0,3.0,89,0.00,,,0.00,0.000000,,2013-09-10 08:22:00,
2013-09-10 03:32:00,73.0,70.0,-100.00,NNE,18,1.0,3.0,89,0.00,,,0.00,0.000000,,2013-09-10 08:32:00,
2013-09-10 03:42:00,73.0,70.0,-100.00,NNE,18,1.0,3.0,89,0.00,,,0.00,0.000000,,2013-09-10 08:42:00,
2013-09-10 03:50:00,72.0,69.0,-100.00,SSW,195,0.0,4.0,90,0.00,,,0.00,0.000000,,2013-09-10 08:50:00,
2013-09-10 04:22:00,72.0,69.0,-100.00,SSW,195,0.0,4.0,90,0.00,,,0.00,0.000000,,2013-09-10 09:22:00,
2013-09-10 04:33:00,72.0,69.0,-100.00,SSW,195,0.0,4.0,90,0.00,,,0.00,0.000000,,2013-09-10 09:33:00,
2013-09-10 04:43:00,72.0,69.0,-100.00,SSW,195,0.0,4.0,90,0.00,,,0.00,0.000000,,2013-09-10 09:43:00,
2013-09-10 04:50:00,72.0,69.0,-100.00,NNE,31,2.0,4.0,91,0.00,,,0.00,0.000000,,2013-09-10 09:50:00,
2013-09-10 05:23:00,72.0,69.0,-100.00,NNE,31,2.0,4.0,91,0.00,,,0.00,0.000000,,2013-09-10 10:23:00,
2013-09-10 05:33:00,72.0,69.0,-100.00,NNE,31,2.0,4.0,91,0.00,,,0.00,0.000000,,2013-09-10 10:33:00,
2013-09-10 05:42:00,72.0,69.0,-100.00,NNE,31,2.0,4.0,91,0.00,,,0.00,0.000000,,2013-09-10 10:42:00,
2013-09-10 08:50:00,77.0,71.0,-100.00,NNE,31,3.0,6.0,81,-99.99,,,0.00,131.000000,,2013-09-10 13:50:00,
2013-09-10 09:22:00,77.0,71.0,-100.00,NNE,31,3.0,6.0,81,-99.99,,,0.00,131.000000,,2013-09-10 14:22:00,
2013-09-10 09:32:00,77.0,71.0,-100.00,NNE,31,3.0,6.0,81,-99.99,,,0.00,131.000000,,2013-09-10 14:32:00,
2013-09-10 09:42:00,77.0,71.0,-100.00,NNE,31,3.0,6.0,81,-99.99,,,0.00,131.000000,,2013-09-10 14:42:00,
2013-09-10 09:50:00,82.0,72.0,-100.00,NE,45,3.0,8.0,71,0.00,,,0.00,292.000000,,2013-09-10 14:50:00,
2013-09-10 10:22:00,82.0,72.0,-100.00,NE,45,3.0,8.0,71,0.00,,,0.00,292.000000,,2013-09-10 15:22:00,
2013-09-10 10:34:00,82.0,72.0,-100.00,NE,45,3.0,8.0,71,0.00,,,0.00,292.000000,,2013-09-10 15:34:00,
2013-09-10 10:43:00,82.0,72.0,-100.00,NE,45,3.0,8.0,71,0.00,,,0.00,292.000000,,2013-09-10 15:43:00,
2013-09-10 10:50:00,87.0,71.0,-100.00,ESE,104,6.0,10.0,59,0.00,,,0.00,641.000000,,2013-09-10 15:50:00,
2013-09-10 11:23:00,87.0,71.0,-100.00,ESE,104,6.0,10.0,59,0.00,,,0.00,641.000000,,2013-09-10 16:23:00,
2013-09-10 11:33:00,87.0,71.0,-100.00,ESE,104,6.0,10.0,59,0.00,,,0.00,641.000000,,2013-09-10 16:33:00,
2013-09-10 11:43:00,87.0,71.0,-100.00,ESE,104,6.0,10.0,59,0.00,,,0.00,641.000000,,2013-09-10 16:43:00,
2013-09-10 11:50:00,90.0,65.0,-100.00,East,87,6.0,12.0,44,0.00,,,0.00,767.000000,,2013-09-10 16:50:00,
2013-09-10 12:23:00,90.0,65.0,-100.00,East,87,6.0,12.0,44,0.00,,,0.00,767.000000,,2013-09-10 17:23:00,
2013-09-10 12:33:00,90.0,65.0,-100.00,East,87,6.0,12.0,44,0.00,,,0.00,767.000000,,2013-09-10 17:33:00,
2013-09-10 12:43:00,90.0,65.0,-100.00,East,87,6.0,12.0,44,0.00,,,0.00,767.000000,,2013-09-10 17:43:00,
2013-09-10 12:50:00,91.0,67.0,-100.00,SE,126,8.0,12.0,46,0.00,,,0.00,741.000000,,2013-09-10 17:50:00,
2013-09-10 13:22:00,91.0,67.0,-100.00,SE,126,8.0,12.0,46,0.00,,,0.00,741.000000,,2013-09-10 18:22:00,
2013-09-10 13:32:00,91.0,67.0,-100.00,SE,126,8.0,12.0,46,0.00,,,0.00,741.000000,,2013-09-10 18:32:00,
2013-09-10 13:43:00,91.0,67.0,-100.00,SE,126,8.0,12.0,46,0.00,,,0.00,741.000000,,2013-09-10 18:43:00,
2013-09-10 13:50:00,90.0,68.0,-100.00,SSE,163,5.0,13.0,49,0.00,,,0.00,712.000000,,2013-09-10 18:50:00,
2013-09-10 14:22:00,90.0,68.0,-100.00,SSE,163,5.0,13.0,49,0.00,,,0.00,712.000000,,2013-09-10 19:22:00,
2013-09-10 14:32:00,90.0,68.0,-100.00,SSE,163,5.0,13.0,49,0.00,,,0.00,712.000000,,2013-09-10 19:32:00,
2013-09-10 14:42:00,90.0,68.0,-100.00,SSE,163,5.0,13.0,49,0.00,,,0.00,712.000000,,2013-09-10 19:42:00,
2013-09-10 14:50:00,89.0,70.0,-100.00,SSE,152,7.0,14.0,54,0.00,,,0.00,487.000000,,2013-09-10 19:50:00,
2013-09-10 15:22:00,89.0,70.0,-100.00,SSE,152,7.0,14.0,54,0.00,,,0.00,487.000000,,2013-09-10 20:22:00,
2013-09-10 15:32:00,89.0,70.0,-100.00,SSE,152,7.0,14.0,54,0.00,,,0.00,487.000000,,2013-09-10 20:32:00,
2013-09-10 15:42:00,89.0,70.0,-100.00,SSE,152,7.0,14.0,54,0.00,,,0.00,487.000000,,2013-09-10 20:42:00,
2013-09-10 15:50:00,90.0,71.0,-100.00,SSE,156,5.0,11.0,53,0.00,,,0.00,465.000000,,2013-09-10 20:50:00,
2013-09-10 16:23:00,90.0,71.0,-100.00,SSE,156,5.0,11.0,53,0.00,,,0.00,465.000000,,2013-09-10 21:23:00,
2013-09-10 16:34:00,90.0,71.0,-100.00,SSE,156,5.0,11.0,53,0.00,,,0.00,465.000000,,2013-09-10 21:34:00,
2013-09-10 16:44:00,90.0,71.0,-100.00,SSE,156,5.0,11.0,53,0.00,,,0.00,465.000000,,2013-09-10 21:44:00,
2013-09-10 16:50:00,85.0,73.0,-100.00,SE,127,9.0,16.0,67,0.00,,,-99.99,406.000000,,2013-09-10 21:50:00,
2013-09-10 17:24:00,85.0,73.0,-100.00,SE,127,9.0,16.0,67,0.00,,,-99.99,406.000000,,2013-09-10 22:24:00,
2013-09-10 17:33:00,85.0,73.0,-100.00,SE,127,9.0,16.0,67,0.00,,,-99.99,406.000000,,2013-09-10 22:33:00,
2013-09-10 17:42:00,85.0,73.0,-100.00,SE,127,9.0,16.0,67,0.00,,,-99.99,406.000000,,2013-09-10 22:42:00,
2013-09-10 17:50:00,81.0,75.0,-100.00,ESE,106,4.0,16.0,83,0.07,,,0.07,64.000000,,2013-09-10 22:50:00,
2013-09-10 18:23:00,81.0,75.0,-100.00,ESE,106,4.0,16.0,83,0.07,,,0.07,64.000000,,2013-09-10 23:23:00,
2013-09-10 18:34:00,81.0,75.0,-100.00,ESE,106,4.0,16.0,83,0.07,,,0.07,64.000000,,2013-09-10 23:34:00,
2013-09-10 18:42:00,81.0,75.0,-100.00,ESE,106,4.0,16.0,83,0.07,,,0.07,64.000000,,2013-09-10 23:42:00,
2013-09-10 18:50:00,81.0,74.0,-100.00,ENE,57,1.0,7.0,79,0.00,,,0.07,71.000000,,2013-09-10 23:50:00,
2013-09-10 19:22:00,81.0,74.0,-100.00,ENE,57,1.0,7.0,79,0.00,,,0.07,71.000000,,2013-09-11 00:22:00,
2013-09-10 19:32:00,81.0,74.0,-100.00,ENE,57,1.0,7.0,79,0.00,,,0.07,71.000000,,2013-09-11 00:32:00,
2013-09-10 19:42:00,81.0,74.0,-100.00,ENE,57,1.0,7.0,79,0.00,,,0.07,71.000000,,2013-09-11 00:42:00,
2013-09-10 19:50:00,80.0,75.0,-100.00,ENE,75,0.0,3.0,84,0.00,,,0.07,5.000000,,2013-09-11 00:50:00,
2013-09-10 20:21:00,80.0,75.0,-100.00,ENE,75,0.0,3.0,84,0.00,,,0.07,5.000000,,2013-09-11 01:21:00,
2013-09-10 20:32:00,80.0,75.0,-100.00,ENE,75,0.0,3.0,84,0.00,,,0.07,5.000000,,2013-09-11 01:32:00,
2013-09-10 20:42:00,80.0,75.0,-100.00,ENE,75,0.0,3.0,84,0.00,,,0.07,5.000000,,2013-09-11 01:42:00,
2013-09-10 20:50:00,79.0,74.0,-100.00,NE,38,0.0,3.0,85,0.00,,,0.07,0.000000,,2013-09-11 01:50:00,
2013-09-10 21:22:00,79.0,74.0,-100.00,NE,38,0.0,3.0,85,0.00,,,0.07,0.000000,,2013-09-11 02:22:00,
2013-09-10 21:32:00,79.0,74.0,-100.00,NE,38,0.0,3.0,85,0.00,,,0.07,0.000000,,2013-09-11 02:32:00,
2013-09-10 21:43:00,79.0,74.0,-100.00,NE,38,0.0,3.0,85,0.00,,,0.07,0.000000,,2013-09-11 02:43:00,
2013-09-10 21:50:00,77.0,72.0,-100.00,ENE,58,2.0,6.0,86,0.00,,,0.07,0.000000,,2013-09-11 02:50:00,
2013-09-10 22:22:00,77.0,72.0,-100.00,ENE,58,2.0,6.0,86,0.00,,,0.07,0.000000,,2013-09-11 03:22:00,
2013-09-10 22:34:00,77.0,72.0,-100.00,ENE,58,2.0,6.0,86,0.00,,,0.07,0.000000,,2013-09-11 03:34:00,
2013-09-10 22:45:00,77.0,72.0,-100.00,ENE,58,2.0,6.0,86,0.00,,,0.07,0.000000,,2013-09-11 03:45:00,
2013-09-10 22:50:00,76.0,73.0,-100.00,NE,42,2.0,3.0,89,0.00,,,0.07,0.000000,,2013-09-11 03:50:00,
2013-09-10 23:24:00,76.0,73.0,-100.00,NE,42,2.0,3.0,89,0.00,,,0.07,0.000000,,2013-09-11 04:24:00,
2013-09-10 23:33:00,76.0,73.0,-100.00,NE,42,2.0,3.0,89,0.00,,,0.07,0.000000,,2013-09-11 04:33:00,
2013-09-10 23:43:00,76.0,73.0,-100.00,NE,42,2.0,3.0,89,0.00,,,0.07,0.000000,,2013-09-11 04:43:00,
2013-09-10 23:50:00,75.0,73.0,-100.00,NE,38,2.0,5.0,92,0.00,,,0.07,0.000000,,2013-09-11 04:50:00,